星链-1584 (STARLINK-1584 )

导读 | 豆包AI

STARLINK-1584是美国SpaceX公司星链(Starlink)项目的一代组网卫星,于2020年8月7日发射入轨,属于星链一代首批覆盖组的1584颗卫星序列。 该卫星运行在550公里高度近地轨道,属于Ku/Ka频段通信卫星,为全球提供高速天基互联网接入服务,是星链完成全球初期覆盖、实现中纬度区域网络服务的重要组网节点,也支撑星链星座从区域服务向全球组网推进。

Basic Information
目录编号:
46044
目录名称:
STARLINK-1584
国际标识:
2020-055T
轨道中心:
EARTH
卫星名称:
星链-1584
卫星全名:
星链-1584 (STARLINK-1584 )
卫星状态:
已陨落 最后检测时间 2024-05-24
发射日期:
2020-08-07 UTC
国别 :
美国 (US)
星等 :
--
Orbit Information
数据来源 国际轨道数据
星历时间: 2024-05-24T19:33:40+0800
轨道信息已过期658天
半长轴: 6557.552km
偏心率: 0.0005068
轨道倾角: 53.035°
近地点辐角 338.796°
升交点赤经 154.179°
平近点角 140.075°
近地点: 176.093km
远地点: 182.741km
周期: 88.079分钟
每日圈数: 16.348963
Detailed Information
固有亮度:
5
最大亮度:
2.5
卫星平台:
Starlink V1.0
覆盖范围:
全球
运营商:
太空探索技术公司
运营商所在国:
美国
制造商(研发单位):
太空探索技术公司
制造商所在国:
美国
使用方式:
暂无
Satellite Introduction
星链(Starlink)计划是由太空探索技术公司(SpaceX)提出的一个巨型低轨卫星互联网星座项目,计划在2019年至2024年间在太空搭建由约1.2万颗卫星组成的“星链”网络,其中1584颗将部署在地球上空550千米处的近地轨道,并从2020年开始工作。该卫星已陨落。